Theta_e
325 327 329 328 328 330 329 330 328 325 328 327 327 329 327 329 329 329 330 332 333 332 331 330 332 328 325 323 321 318 319 317
323 327 328 327 327 328 327 327 328 326 326 325 325 327 327 329 330 330 332 335 335 334 333 331 330 327 324 322 319 316 311 310
319 325 326 326 325 327 326 326 327 327 328 328 328 327 327 331 330 330 332 334 333 333 331 329 327 324 323 322 318 312 308 309
317 323 325 325 323 325 326 325 327 328 327 326 326 324 325 327 330 330 331 332 331 331 330 328 325 326 324 321 317 311 309 309
318 321 322 323 323 326 326 326 327 328 326 326 327 326 324 327 330 331 330 332 330 330 328 326 323 324 323 320 316 312 311 307
319 319 321 323 324 324 326 326 327 328 326 326 326 326 325 330 330 328 330 329 330 329 326 322 321 322 322 320 316 311 311 308
323 320 321 322 324 324 326 326 326 327 327 324 325 326 325 329 329 329 328 328 325 325 324 321 321 321 320 320 318 313 310 309
322 320 319 321 322 323 325 326 325 326 327 325 325 326 326 328 329 329 326 324 320 321 320 318 318 318 318 318 317 314 312 309
322 321 319 321 322 323 324 325 325 326 327 324 324 327 328 329 329 329 327 325 321 319 319 319 317 317 318 317 315 313 311 309
321 321 320 322 323 323 323 325 326 325 326 327 325 328 328 327 327 326 326 324 321 319 318 317 316 315 314 313 312 311 310 308
319 320 320 321 323 323 323 326 326 326 325 326 327 328 328 327 326 324 323 320 320 316 316 316 313 312 311 312 311 312 310 308
314 314 318 320 323 322 323 325 325 326 326 326 328 327 327 327 325 323 322 320 318 317 316 314 312 311 312 311 311 309 309 307
313 315 316 316 319 323 323 321 320 322 326 326 325 323 323 323 323 322 320 319 318 317 314 312 311 310 311 310 308 307 307 305
308 312 316 315 317 316 316 316 317 318 322 323 322 321 322 320 318 317 318 318 317 315 312 310 309 310 310 309 307 307 306 305
301 305 311 314 315 315 314 315 315 316 318 321 318 318 318 318 318 317 317 317 315 313 312 311 311 311 308 308 307 304 303 302
295 298 305 310 313 314 315 314 315 318 320 319 318 316 317 316 317 315 314 313 312 312 312 311 310 309 308 304 303 300 300 298
293 294 297 305 312 312 313 313 313 313 311 310 312 315 317 316 313 311 310 311 312 311 309 308 306 307 299 298 297 298 298 297
291 292 294 300 305 311 311 311 311 310 309 308 309 308 308 309 310 309 309 310 309 307 306 305 304 303 296 295 294 297 296 295
290 291 292 297 301 308 311 310 309 308 307 307 307 306 306 307 308 307 307 306 307 306 305 306 305 304 294 296 292 296 295 295
Wind_Speed
25 26 24 24 22 22 20 18 18 17 12 12 8 10 10 9 8 8 10 6 8 7 6 7 9 9 8 6 9 5 8 8
22 25 25 23 22 23 22 22 18 15 11 13 11 12 8 9 8 9 9 8 11 11 9 9 8 11 11 10 9 12 5 8
16 24 25 25 24 24 21 23 18 16 12 11 10 8 5 10 7 8 6 8 9 10 11 11 10 9 11 12 12 5 3 6
20 24 26 25 25 25 24 23 20 17 15 9 5 5 3 4 9 8 7 10 9 10 8 9 7 9 10 10 10 9 10 3
25 27 26 27 25 23 24 22 20 15 14 13 16 12 9 4 8 7 6 10 9 8 8 7 8 6 10 11 9 10 10 7
24 26 29 29 26 24 24 23 22 19 16 13 12 12 7 6 6 9 9 7 10 10 8 8 8 6 9 11 8 9 8 7
26 28 24 23 22 22 20 22 21 20 18 15 13 14 9 11 12 11 9 8 6 8 9 8 8 8 10 9 9 11 8 6
24 24 20 18 22 21 18 21 20 19 20 17 14 10 12 16 16 13 12 7 4 7 7 8 6 7 7 7 8 8 9 7
25 22 19 22 24 23 21 22 19 18 18 15 10 8 7 8 11 9 10 10 9 8 8 8 7 7 6 6 4 5 6 6
24 21 19 22 21 21 21 20 18 16 17 15 14 12 10 11 10 11 10 10 9 11 10 9 7 7 7 6 5 6 6 5
10 14 16 14 17 16 14 17 21 21 17 13 13 12 10 9 9 11 11 10 12 11 10 10 8 7 6 7 4 4 6 2
9 6 8 10 12 12 11 14 11 12 15 15 15 11 13 12 12 11 11 11 12 13 12 9 9 9 7 6 5 6 6 6
9 7 6 8 6 10 13 11 10 7 6 5 6 11 10 12 11 11 12 14 13 13 10 9 7 7 6 7 6 6 7 6
11 11 6 7 6 6 6 5 6 6 5 6 4 2 8 5 7 10 11 12 12 11 12 11 10 7 7 5 6 6 6 6
13 11 9 8 9 7 7 5 1 3 5 11 12 8 9 9 6 6 8 9 11 10 9 10 9 9 8 6 6 6 6 6
16 15 9 8 9 8 9 8 6 3 8 3 7 12 8 7 5 8 5 7 5 9 7 7 6 8 7 7 6 6 6 6
17 17 15 9 8 8 10 8 9 7 10 8 6 5 6 12 11 8 6 10 12 14 14 14 11 7 11 10 8 6 6 7
16 16 13 11 8 9 10 9 8 9 8 9 7 7 8 8 10 10 9 9 8 7 8 9 9 7 13 12 11 6 6 6
13 13 13 12 12 9 10 8 7 9 9 7 7 6 7 5 6 6 6 7 8 7 7 9 8 6 12 12 11 7 6 6
Wind_Direction
174 174 167 170 171 173 174 174 177 176 175 178 178 182 182 177 185 184 185 178 166 166 141 140 144 136 139 138 133 112 128 131
173 174 172 167 171 175 179 177 178 175 175 178 176 182 182 186 183 184 183 160 157 156 151 147 157 151 154 149 132 128 102 122
170 174 174 175 171 180 180 181 181 177 170 174 174 167 175 182 190 168 167 157 154 152 156 162 160 140 146 149 149 125 101 168
171 176 177 178 178 180 183 184 178 183 172 155 131 100 86 149 178 169 170 152 156 151 158 147 156 155 158 160 154 143 161 213
172 179 179 180 183 178 180 183 180 180 177 177 176 183 174 173 179 169 163 154 155 158 154 154 158 154 153 163 161 155 156 171
185 179 181 184 179 180 181 180 180 174 178 186 185 180 165 151 163 160 168 159 158 163 156 155 155 155 157 158 159 160 170 155
191 190 176 181 180 180 178 179 180 175 178 177 189 187 169 164 167 170 170 168 161 159 153 157 163 165 171 170 168 173 173 158
194 190 175 172 175 177 175 180 180 179 185 180 179 194 180 178 172 171 165 164 151 163 150 160 168 168 173 163 168 173 177 177
191 186 166 170 174 176 176 176 177 179 182 185 162 169 187 181 184 174 170 170 166 160 164 165 168 170 176 174 167 164 166 178
186 177 163 168 172 173 172 174 176 179 187 186 182 170 178 184 176 173 173 166 165 166 167 165 167 171 165 157 156 167 175 181
152 162 145 156 173 168 169 177 176 174 186 188 185 181 156 167 162 176 168 161 163 164 167 168 159 156 150 150 168 171 169 142
61 81 132 137 143 137 154 167 162 167 187 192 188 172 164 165 170 169 170 164 165 172 168 164 155 157 166 164 162 147 149 156
60 45 104 119 137 146 140 138 139 124 119 143 235 147 155 162 167 175 170 170 170 172 160 154 149 145 142 170 159 160 161 171
51 52 78 89 96 84 102 129 146 132 103 116 139 176 140 153 172 163 174 170 170 166 156 158 149 152 149 167 154 169 169 156
37 36 46 67 94 99 99 84 327 132 147 129 123 107 86 79 355 297 176 174 165 162 157 151 160 163 157 166 165 186 155 158
35 32 34 38 69 77 80 73 51 82 192 190 176 149 141 106 192 175 139 129 183 132 156 145 161 160 170 154 186 161 162 150
41 33 29 30 78 74 74 64 69 70 91 98 92 142 182 169 159 160 154 159 176 175 176 161 168 174 156 160 155 161 162 156
42 34 34 29 40 67 66 64 69 73 75 74 84 101 108 126 146 157 162 162 175 153 136 145 161 165 159 158 146 165 156 144
48 38 28 34 55 70 98 93 87 78 77 79 78 84 96 120 138 148 149 153 169 148 153 161 164 172 163 162 158 152 152 153